OTB-3-GAZELLE

Last updated on Wed Aug 19 2026 00:02:55 GMT+0000 (Coordinated Universal Time)

1 54023U 22127A 26230.54908386 .00000096 00000+0 41986-4 0 9990 2 54023 98.3999 221.3192 0013264 6.5094 353.6266 14.42694016203354
UTC large
Height (km)
Speed (km/s)
/
Latitude / Longitude
Inclination (degrees)
Orbital Period (minutes)
Azimuth
Elevation
Range (km)
Doppler Factor

Next 0 passes for location: London (51.5072 / 0.1276)

No passes found over London.
OTB-3-GAZELLE